Year,Month,Day,Hour,Minute,Value (Times are PST for temperature in C)
2012,10,22,00,00,7.00
2012,10,22,00,01,7.00
2012,10,22,00,02,6.90
2012,10,22,00,03,6.90
2012,10,22,00,04,6.90
2012,10,22,00,05,6.90
2012,10,22,00,06,6.90
2012,10,22,00,07,6.90
2012,10,22,00,08,6.90
2012,10,22,00,09,6.80
2012,10,22,00,10,6.80
2012,10,22,00,11,6.80
2012,10,22,00,12,6.80
2012,10,22,00,13,6.80
2012,10,22,00,14,6.80
2012,10,22,00,15,6.80
2012,10,22,00,16,6.80
2012,10,22,00,17,6.80
2012,10,22,00,18,6.80
2012,10,22,00,19,6.70
2012,10,22,00,20,6.70
2012,10,22,00,21,6.70
2012,10,22,00,22,6.70
2012,10,22,00,23,6.70
2012,10,22,00,24,6.80
2012,10,22,00,25,6.80
2012,10,22,00,26,6.80
2012,10,22,00,27,6.80
2012,10,22,00,28,6.80
2012,10,22,00,29,6.80
2012,10,22,00,30,6.80
2012,10,22,00,31,6.80
2012,10,22,00,32,6.80
2012,10,22,00,33,6.80
2012,10,22,00,34,6.80
2012,10,22,00,35,6.80
2012,10,22,00,36,6.80
2012,10,22,00,37,6.80
2012,10,22,00,38,6.80
2012,10,22,00,39,6.80
2012,10,22,00,40,6.80
2012,10,22,00,41,6.80
2012,10,22,00,42,6.80
2012,10,22,00,43,6.80
2012,10,22,00,44,6.80
2012,10,22,00,45,6.80
2012,10,22,00,46,6.80
2012,10,22,00,47,6.80
2012,10,22,00,48,6.80
2012,10,22,00,49,6.80
2012,10,22,00,50,6.80
2012,10,22,00,51,6.90
2012,10,22,00,52,6.90
2012,10,22,00,53,6.90
2012,10,22,00,54,6.90
2012,10,22,00,55,6.90
2012,10,22,00,56,6.90
2012,10,22,00,57,6.90
2012,10,22,00,58,6.90
2012,10,22,00,59,6.90
2012,10,22,01,00,6.90
2012,10,22,01,01,6.90
2012,10,22,01,02,6.90
2012,10,22,01,03,6.90
2012,10,22,01,04,6.90
2012,10,22,01,05,6.90
2012,10,22,01,06,6.90
2012,10,22,01,07,6.90
2012,10,22,01,08,6.90
2012,10,22,01,09,6.80
2012,10,22,01,10,6.80
2012,10,22,01,11,6.80
2012,10,22,01,12,6.80
2012,10,22,01,13,6.80
2012,10,22,01,14,6.80
2012,10,22,01,15,6.80
2012,10,22,01,16,6.80
2012,10,22,01,17,6.70
2012,10,22,01,18,6.70
2012,10,22,01,19,6.70
2012,10,22,01,20,6.60
2012,10,22,01,21,6.60
2012,10,22,01,22,6.60
2012,10,22,01,23,6.60
2012,10,22,01,24,6.50
2012,10,22,01,25,6.50
2012,10,22,01,26,6.40
2012,10,22,01,27,6.40
2012,10,22,01,28,6.40
2012,10,22,01,29,6.40
2012,10,22,01,30,6.40
2012,10,22,01,31,6.40
2012,10,22,01,32,6.40
2012,10,22,01,33,6.40
2012,10,22,01,34,6.40
2012,10,22,01,35,6.40
2012,10,22,01,36,6.40
2012,10,22,01,37,6.40
2012,10,22,01,38,6.40
2012,10,22,01,39,6.40
2012,10,22,01,40,6.40
2012,10,22,01,41,6.40
2012,10,22,01,42,6.40
2012,10,22,01,43,6.50
2012,10,22,01,44,6.50
2012,10,22,01,45,6.50
2012,10,22,01,46,6.50
2012,10,22,01,47,6.60
2012,10,22,01,48,6.60
2012,10,22,01,49,6.70
2012,10,22,01,50,6.70
2012,10,22,01,51,6.70
2012,10,22,01,52,6.70
2012,10,22,01,53,6.80
2012,10,22,01,54,6.80
2012,10,22,01,55,6.80
2012,10,22,01,56,6.80
2012,10,22,01,57,6.80
2012,10,22,01,58,6.80
2012,10,22,01,59,6.80
2012,10,22,02,00,6.80
2012,10,22,02,01,6.80
2012,10,22,02,02,6.80
2012,10,22,02,03,6.70
2012,10,22,02,04,6.70
2012,10,22,02,05,6.70
2012,10,22,02,06,6.70
2012,10,22,02,07,6.70
2012,10,22,02,08,6.70
2012,10,22,02,09,6.70
2012,10,22,02,10,6.70
2012,10,22,02,11,6.70
2012,10,22,02,12,6.70
2012,10,22,02,13,6.70
2012,10,22,02,14,6.70
2012,10,22,02,15,6.70
2012,10,22,02,16,6.70
2012,10,22,02,17,6.70
2012,10,22,02,18,6.70
2012,10,22,02,19,6.70
2012,10,22,02,20,6.70
2012,10,22,02,21,6.70
2012,10,22,02,22,6.70
2012,10,22,02,23,6.70
2012,10,22,02,24,6.70
2012,10,22,02,25,6.70
2012,10,22,02,26,6.70
2012,10,22,02,27,6.70
2012,10,22,02,28,6.70
2012,10,22,02,29,6.70
2012,10,22,02,30,6.70
2012,10,22,02,31,6.70
2012,10,22,02,32,6.70
2012,10,22,02,33,6.70
2012,10,22,02,34,6.70
2012,10,22,02,35,6.70
2012,10,22,02,36,6.70
2012,10,22,02,37,6.70
2012,10,22,02,38,6.70
2012,10,22,02,39,6.70
2012,10,22,02,40,6.70
2012,10,22,02,41,6.70
2012,10,22,02,42,6.60
2012,10,22,02,43,6.60
2012,10,22,02,44,6.60
2012,10,22,02,45,6.60
2012,10,22,02,46,6.60
2012,10,22,02,47,6.60
2012,10,22,02,48,6.60
2012,10,22,02,49,6.60
2012,10,22,02,50,6.60
2012,10,22,02,51,6.60
2012,10,22,02,52,6.60
2012,10,22,02,53,6.60
2012,10,22,02,54,6.50
2012,10,22,02,55,6.50
2012,10,22,02,56,6.40
2012,10,22,02,57,6.40
2012,10,22,02,58,6.40
2012,10,22,02,59,6.40
2012,10,22,03,00,6.30
2012,10,22,03,01,6.30
2012,10,22,03,02,6.30
2012,10,22,03,03,6.30
2012,10,22,03,04,6.20
2012,10,22,03,05,6.20
2012,10,22,03,06,6.20
2012,10,22,03,07,6.20
2012,10,22,03,08,6.10
2012,10,22,03,09,6.10
2012,10,22,03,10,6.10
2012,10,22,03,11,6.10
2012,10,22,03,12,6.10
2012,10,22,03,13,6.10
2012,10,22,03,14,6.10
2012,10,22,03,15,6.10
2012,10,22,03,16,6.10
2012,10,22,03,17,6.10
2012,10,22,03,18,6.10
2012,10,22,03,19,6.00
2012,10,22,03,20,6.00
2012,10,22,03,21,6.00
2012,10,22,03,22,6.00
2012,10,22,03,23,5.90
2012,10,22,03,24,5.90
2012,10,22,03,25,5.90
2012,10,22,03,26,5.90
2012,10,22,03,27,5.90
2012,10,22,03,28,5.80
2012,10,22,03,29,5.80
2012,10,22,03,30,5.80
2012,10,22,03,31,5.70
2012,10,22,03,32,5.70
2012,10,22,03,33,5.70
2012,10,22,03,34,5.60
2012,10,22,03,35,5.60
2012,10,22,03,36,5.60
2012,10,22,03,37,5.50
2012,10,22,03,38,5.50
2012,10,22,03,39,5.50
2012,10,22,03,40,5.40
2012,10,22,03,41,5.40
2012,10,22,03,42,5.40
2012,10,22,03,43,5.30
2012,10,22,03,44,5.30
2012,10,22,03,45,5.30
2012,10,22,03,46,5.30
2012,10,22,03,47,5.30
2012,10,22,03,48,5.20
2012,10,22,03,49,5.20
2012,10,22,03,50,5.10
2012,10,22,03,51,5.10
2012,10,22,03,52,5.00
2012,10,22,03,53,4.90
2012,10,22,03,54,4.80
2012,10,22,03,55,4.80
2012,10,22,03,56,4.70
2012,10,22,03,57,4.70
2012,10,22,03,58,4.60
2012,10,22,03,59,4.60
2012,10,22,04,00,4.50
2012,10,22,04,01,4.50
2012,10,22,04,02,4.40
2012,10,22,04,03,4.40
2012,10,22,04,04,4.40
2012,10,22,04,05,4.40
2012,10,22,04,06,4.30
2012,10,22,04,07,4.30
2012,10,22,04,08,4.20
2012,10,22,04,09,4.20
2012,10,22,04,10,4.20
2012,10,22,04,11,4.20
2012,10,22,04,12,4.10
2012,10,22,04,13,4.10
2012,10,22,04,14,4.10
2012,10,22,04,15,4.10
2012,10,22,04,16,4.00
2012,10,22,04,17,4.00
2012,10,22,04,18,3.90
2012,10,22,04,19,3.90
2012,10,22,04,20,3.90
2012,10,22,04,21,3.80
2012,10,22,04,22,3.80
2012,10,22,04,23,3.80
2012,10,22,04,24,3.70
2012,10,22,04,25,3.70
2012,10,22,04,26,3.70
2012,10,22,04,27,3.70
2012,10,22,04,28,3.70
2012,10,22,04,29,3.70
2012,10,22,04,30,3.60
2012,10,22,04,31,3.60
2012,10,22,04,32,3.60
2012,10,22,04,33,3.60
2012,10,22,04,34,3.60
2012,10,22,04,35,3.60
2012,10,22,04,36,3.60
2012,10,22,04,37,3.60
2012,10,22,04,38,3.60
2012,10,22,04,39,3.60
2012,10,22,04,40,3.60
2012,10,22,04,41,3.60
2012,10,22,04,42,3.50
2012,10,22,04,43,3.50
2012,10,22,04,44,3.50
2012,10,22,04,45,3.50
2012,10,22,04,46,3.50
2012,10,22,04,47,3.50
2012,10,22,04,48,3.40
2012,10,22,04,49,3.40
2012,10,22,04,50,3.40
2012,10,22,04,51,3.30
2012,10,22,04,52,3.30
2012,10,22,04,53,3.30
2012,10,22,04,54,3.30
2012,10,22,04,55,3.30
2012,10,22,04,56,3.30
2012,10,22,04,57,3.30
2012,10,22,04,58,3.40
2012,10,22,04,59,3.40
2012,10,22,05,00,3.40
2012,10,22,05,01,3.30
2012,10,22,05,02,3.30
2012,10,22,05,03,3.30
2012,10,22,05,04,3.20
2012,10,22,05,05,3.20
2012,10,22,05,06,3.10
2012,10,22,05,07,3.10
2012,10,22,05,08,3.10
2012,10,22,05,09,3.00
2012,10,22,05,10,3.00
2012,10,22,05,11,2.90
2012,10,22,05,12,2.90
2012,10,22,05,13,2.90
2012,10,22,05,14,3.00
2012,10,22,05,15,3.00
2012,10,22,05,16,3.00
2012,10,22,05,17,3.00
2012,10,22,05,18,3.00
2012,10,22,05,19,3.00
2012,10,22,05,20,3.10
2012,10,22,05,21,3.10
2012,10,22,05,22,3.10
2012,10,22,05,23,3.00
2012,10,22,05,24,3.00
2012,10,22,05,25,3.00
2012,10,22,05,26,2.90
2012,10,22,05,27,2.90
2012,10,22,05,28,2.90
2012,10,22,05,29,2.90
2012,10,22,05,30,2.90
2012,10,22,05,31,2.90
2012,10,22,05,32,2.90
2012,10,22,05,33,2.80
2012,10,22,05,34,2.90
2012,10,22,05,35,2.80
2012,10,22,05,36,2.80
2012,10,22,05,37,2.80
2012,10,22,05,38,2.80
2012,10,22,05,39,2.80
2012,10,22,05,40,2.80
2012,10,22,05,41,2.80
2012,10,22,05,42,2.80
2012,10,22,05,43,2.80
2012,10,22,05,44,2.80
2012,10,22,05,45,2.80
2012,10,22,05,46,2.80
2012,10,22,05,47,2.90
2012,10,22,05,48,2.90
2012,10,22,05,49,2.90
2012,10,22,05,50,2.90
2012,10,22,05,51,2.80
2012,10,22,05,52,2.80
2012,10,22,05,53,2.80
2012,10,22,05,54,2.80
2012,10,22,05,55,2.80
2012,10,22,05,56,2.80
2012,10,22,05,57,2.80
2012,10,22,05,58,2.80
2012,10,22,05,59,2.80
2012,10,22,06,00,2.90
2012,10,22,06,01,2.90
2012,10,22,06,02,2.90
2012,10,22,06,03,2.90
2012,10,22,06,04,2.90
2012,10,22,06,05,2.90
2012,10,22,06,06,2.80
2012,10,22,06,07,2.80
2012,10,22,06,08,2.80
2012,10,22,06,09,2.80
2012,10,22,06,10,2.80
2012,10,22,06,11,2.80
2012,10,22,06,12,2.80
2012,10,22,06,13,2.80
2012,10,22,06,14,2.80
2012,10,22,06,15,2.80
2012,10,22,06,16,2.80
2012,10,22,06,17,2.80
2012,10,22,06,18,2.80
2012,10,22,06,19,2.80
2012,10,22,06,20,2.70
2012,10,22,06,21,2.70
2012,10,22,06,22,2.70
2012,10,22,06,23,2.60
2012,10,22,06,24,2.60
2012,10,22,06,25,2.60
2012,10,22,06,26,2.60
2012,10,22,06,27,2.50
2012,10,22,06,28,2.50
2012,10,22,06,29,2.50
2012,10,22,06,30,2.60
2012,10,22,06,31,2.60
2012,10,22,06,32,2.70
2012,10,22,06,33,2.70
2012,10,22,06,34,2.80
2012,10,22,06,35,2.80
2012,10,22,06,36,2.80
2012,10,22,06,37,2.80
2012,10,22,06,38,2.80
2012,10,22,06,39,2.80
2012,10,22,06,40,2.80
2012,10,22,06,41,2.80
2012,10,22,06,42,2.80
2012,10,22,06,43,2.80
2012,10,22,06,44,2.80
2012,10,22,06,45,2.80
2012,10,22,06,46,2.80
2012,10,22,06,47,2.80
2012,10,22,06,48,2.80
2012,10,22,06,49,2.80
2012,10,22,06,50,2.80
2012,10,22,06,51,2.80
2012,10,22,06,52,2.70
2012,10,22,06,53,2.70
2012,10,22,06,54,2.70
2012,10,22,06,55,2.80
2012,10,22,06,56,2.80
2012,10,22,06,57,2.80
2012,10,22,06,58,2.80
2012,10,22,06,59,2.80
2012,10,22,07,00,2.80
2012,10,22,07,01,2.70
2012,10,22,07,02,2.70
2012,10,22,07,03,2.70
2012,10,22,07,04,2.80
2012,10,22,07,05,2.80
2012,10,22,07,06,2.80
2012,10,22,07,07,2.80
2012,10,22,07,08,2.80
2012,10,22,07,09,2.80
2012,10,22,07,10,2.80
2012,10,22,07,11,2.80
2012,10,22,07,12,2.80
2012,10,22,07,13,2.80
2012,10,22,07,14,2.80
2012,10,22,07,15,2.80
2012,10,22,07,16,2.80
2012,10,22,07,17,2.80
2012,10,22,07,18,2.80
2012,10,22,07,19,2.90
2012,10,22,07,20,2.90
2012,10,22,07,21,2.90
2012,10,22,07,22,2.90
2012,10,22,07,23,2.90
2012,10,22,07,24,2.90
2012,10,22,07,25,2.80
2012,10,22,07,26,2.80
2012,10,22,07,27,2.80
2012,10,22,07,28,2.90
2012,10,22,07,29,2.90
2012,10,22,07,30,2.90
2012,10,22,07,31,2.90
2012,10,22,07,32,2.90
2012,10,22,07,33,2.90
2012,10,22,07,34,2.90
2012,10,22,07,35,2.80
2012,10,22,07,36,2.80
2012,10,22,07,37,2.80
2012,10,22,07,38,2.80
2012,10,22,07,39,2.80
2012,10,22,07,40,2.80
2012,10,22,07,41,2.80
2012,10,22,07,42,2.80
2012,10,22,07,43,2.90
2012,10,22,07,44,2.90
2012,10,22,07,45,2.90
2012,10,22,07,46,2.90
2012,10,22,07,47,2.90
2012,10,22,07,48,2.90
2012,10,22,07,49,2.90
2012,10,22,07,50,3.00
2012,10,22,07,51,3.00
2012,10,22,07,52,3.00
2012,10,22,07,53,3.10
2012,10,22,07,54,3.10
2012,10,22,07,55,3.10
2012,10,22,07,56,3.10
2012,10,22,07,57,3.20
2012,10,22,07,58,3.20
2012,10,22,07,59,3.20
2012,10,22,08,00,3.30
2012,10,22,08,01,3.30
2012,10,22,08,02,3.30
2012,10,22,08,03,3.30
2012,10,22,08,04,3.30
2012,10,22,08,05,3.30
2012,10,22,08,06,3.30
2012,10,22,08,07,3.20
2012,10,22,08,08,3.20
2012,10,22,08,09,3.20
2012,10,22,08,10,3.20
2012,10,22,08,11,3.20
2012,10,22,08,12,3.20
2012,10,22,08,13,3.20
2012,10,22,08,14,3.20
2012,10,22,08,15,3.20
2012,10,22,08,16,3.20
2012,10,22,08,17,3.20
2012,10,22,08,18,3.30
2012,10,22,08,19,3.30
2012,10,22,08,20,3.30
2012,10,22,08,21,3.30
2012,10,22,08,22,3.30
2012,10,22,08,23,3.30
2012,10,22,08,24,3.30
2012,10,22,08,25,3.30
2012,10,22,08,26,3.30
2012,10,22,08,27,3.30
2012,10,22,08,28,3.30
2012,10,22,08,29,3.40
2012,10,22,08,30,3.40
2012,10,22,08,31,3.40
2012,10,22,08,32,3.40
2012,10,22,08,33,3.40
2012,10,22,08,34,3.40
2012,10,22,08,35,3.40
2012,10,22,08,36,3.40
2012,10,22,08,37,3.40
2012,10,22,08,38,3.40
2012,10,22,08,39,3.50
2012,10,22,08,40,3.50
2012,10,22,08,41,3.50
2012,10,22,08,42,3.50
2012,10,22,08,43,3.60
2012,10,22,08,44,3.60
2012,10,22,08,45,3.60
2012,10,22,08,46,3.60
2012,10,22,08,47,3.60
2012,10,22,08,48,3.60
2012,10,22,08,49,3.60
2012,10,22,08,50,3.60
2012,10,22,08,51,3.60
2012,10,22,08,52,3.60
2012,10,22,08,53,3.60
2012,10,22,08,54,3.60
2012,10,22,08,55,3.60
2012,10,22,08,56,3.70
2012,10,22,08,57,3.70
2012,10,22,08,58,3.70
2012,10,22,08,59,3.70
2012,10,22,09,00,3.70
2012,10,22,09,01,3.80
2012,10,22,09,02,3.80
2012,10,22,09,03,3.80
2012,10,22,09,04,3.80
2012,10,22,09,05,3.80
2012,10,22,09,06,3.90
2012,10,22,09,07,3.90
2012,10,22,09,08,3.90
2012,10,22,09,09,4.00
2012,10,22,09,10,4.00
2012,10,22,09,11,4.00
2012,10,22,09,12,4.10
2012,10,22,09,13,4.10
2012,10,22,09,14,4.10
2012,10,22,09,15,4.20
2012,10,22,09,16,4.20
2012,10,22,09,17,4.20
2012,10,22,09,18,4.20
2012,10,22,09,19,4.20
2012,10,22,09,20,4.30
2012,10,22,09,21,4.30
2012,10,22,09,22,4.30
2012,10,22,09,23,4.30
2012,10,22,09,24,4.30
2012,10,22,09,25,4.30
2012,10,22,09,26,4.30
2012,10,22,09,27,4.40
2012,10,22,09,28,4.40
2012,10,22,09,29,4.40
2012,10,22,09,30,4.40
2012,10,22,09,31,4.40
2012,10,22,09,32,4.50
2012,10,22,09,33,4.50
2012,10,22,09,34,4.50
2012,10,22,09,35,4.60
2012,10,22,09,36,4.60
2012,10,22,09,37,4.60
2012,10,22,09,38,4.60
2012,10,22,09,39,4.70
2012,10,22,09,40,4.70
2012,10,22,09,41,4.70
2012,10,22,09,42,4.70
2012,10,22,09,43,4.70
2012,10,22,09,44,4.80
2012,10,22,09,45,4.80
2012,10,22,09,46,4.80
2012,10,22,09,47,4.80
2012,10,22,09,48,4.80
2012,10,22,09,49,4.80
2012,10,22,09,50,4.90
2012,10,22,09,51,4.90
2012,10,22,09,52,4.90
2012,10,22,09,53,4.90
2012,10,22,09,54,5.00
2012,10,22,09,55,5.00
2012,10,22,09,56,5.10
2012,10,22,09,57,5.10
2012,10,22,09,58,5.10
2012,10,22,09,59,5.10
2012,10,22,10,00,5.20
2012,10,22,10,01,5.20
2012,10,22,10,02,5.20
2012,10,22,10,03,5.20
2012,10,22,10,04,5.20
2012,10,22,10,05,5.30
2012,10,22,10,06,5.30
2012,10,22,10,07,5.30
2012,10,22,10,08,5.40
2012,10,22,10,09,5.40
2012,10,22,10,10,5.50
2012,10,22,10,11,5.50
2012,10,22,10,12,5.50
2012,10,22,10,13,5.60
2012,10,22,10,14,5.60
2012,10,22,10,15,5.60
2012,10,22,10,16,5.60
2012,10,22,10,17,5.70
2012,10,22,10,18,5.70
2012,10,22,10,19,5.70
2012,10,22,10,20,5.70
2012,10,22,10,21,5.70
2012,10,22,10,22,5.80
2012,10,22,10,23,5.80
2012,10,22,10,24,5.80
2012,10,22,10,25,5.80
2012,10,22,10,26,5.80
2012,10,22,10,27,5.90
2012,10,22,10,28,5.90
2012,10,22,10,29,5.90
2012,10,22,10,30,5.90
2012,10,22,10,31,5.90
2012,10,22,10,32,6.00
2012,10,22,10,33,6.00
2012,10,22,10,34,6.00
2012,10,22,10,35,6.10
2012,10,22,10,36,6.10
2012,10,22,10,37,6.10
2012,10,22,10,38,6.20
2012,10,22,10,39,6.20
2012,10,22,10,40,6.20
2012,10,22,10,41,6.30
2012,10,22,10,42,6.30
2012,10,22,10,43,6.30
2012,10,22,10,44,6.40
2012,10,22,10,45,6.40
2012,10,22,10,46,6.40
2012,10,22,10,47,6.40
2012,10,22,10,48,6.50
2012,10,22,10,49,6.60
2012,10,22,10,50,6.60
2012,10,22,10,51,6.70
2012,10,22,10,52,6.70
2012,10,22,10,53,6.70
2012,10,22,10,54,6.70
2012,10,22,10,55,6.70
2012,10,22,10,56,6.80
2012,10,22,10,57,6.80
2012,10,22,10,58,6.80
2012,10,22,10,59,6.80
2012,10,22,11,00,6.80
2012,10,22,11,01,6.80
2012,10,22,11,02,6.80
2012,10,22,11,03,6.80
2012,10,22,11,04,6.80
2012,10,22,11,05,6.80
2012,10,22,11,06,6.80
2012,10,22,11,07,6.80
2012,10,22,11,08,6.80
2012,10,22,11,09,6.80
2012,10,22,11,10,6.80
2012,10,22,11,11,6.90
2012,10,22,11,12,6.90
2012,10,22,11,13,6.90
2012,10,22,11,14,6.90
2012,10,22,11,15,6.90
2012,10,22,11,16,6.90
2012,10,22,11,17,7.00
2012,10,22,11,18,7.00
2012,10,22,11,19,7.00
2012,10,22,11,20,7.00
2012,10,22,11,21,7.00
2012,10,22,11,22,7.00
2012,10,22,11,23,7.00
2012,10,22,11,24,7.10
2012,10,22,11,25,7.10
2012,10,22,11,26,7.10
2012,10,22,11,27,7.10
2012,10,22,11,28,7.10
2012,10,22,11,29,7.10
2012,10,22,11,30,7.20
2012,10,22,11,31,7.20
2012,10,22,11,32,7.20
2012,10,22,11,33,7.20
2012,10,22,11,34,7.20
2012,10,22,11,35,7.20
2012,10,22,11,36,7.20
2012,10,22,11,37,7.20
2012,10,22,11,38,7.20
2012,10,22,11,39,7.20
2012,10,22,11,40,7.20
2012,10,22,11,41,7.20
2012,10,22,11,42,7.20
2012,10,22,11,43,7.20
2012,10,22,11,44,7.20
2012,10,22,11,45,7.20
2012,10,22,11,46,7.20
2012,10,22,11,47,7.20
2012,10,22,11,48,7.20
2012,10,22,11,49,7.30
2012,10,22,11,50,7.30
2012,10,22,11,51,7.30
2012,10,22,11,52,7.30
2012,10,22,11,53,7.30
2012,10,22,11,54,7.30
2012,10,22,11,55,7.30
2012,10,22,11,56,7.30
2012,10,22,11,57,7.30
2012,10,22,11,58,7.30
2012,10,22,11,59,7.30
2012,10,22,12,00,7.30
2012,10,22,12,01,7.30
2012,10,22,12,02,7.30
2012,10,22,12,03,7.30
2012,10,22,12,04,7.30
2012,10,22,12,05,7.30
2012,10,22,12,06,7.30
2012,10,22,12,07,7.30
2012,10,22,12,08,7.30
2012,10,22,12,09,7.30
2012,10,22,12,10,7.30
2012,10,22,12,11,7.30
2012,10,22,12,12,7.30
2012,10,22,12,13,7.30
2012,10,22,12,14,7.30
2012,10,22,12,15,7.30
2012,10,22,12,16,7.30
2012,10,22,12,17,7.30
2012,10,22,12,18,7.30
2012,10,22,12,19,7.30
2012,10,22,12,20,7.30
2012,10,22,12,21,7.30
2012,10,22,12,22,7.30
2012,10,22,12,23,7.30
2012,10,22,12,24,7.30
2012,10,22,12,25,7.30
2012,10,22,12,26,7.20
2012,10,22,12,27,7.20
2012,10,22,12,28,7.20
2012,10,22,12,29,7.20
2012,10,22,12,30,7.20
2012,10,22,12,31,7.20
2012,10,22,12,32,7.20
2012,10,22,12,33,7.20
2012,10,22,12,34,7.20
2012,10,22,12,35,7.20
2012,10,22,12,36,7.20
2012,10,22,12,37,7.20
2012,10,22,12,38,7.20
2012,10,22,12,39,7.20
2012,10,22,12,40,7.20
2012,10,22,12,41,7.30
2012,10,22,12,42,7.20
2012,10,22,12,43,7.30
2012,10,22,12,44,7.20
2012,10,22,12,45,7.20
2012,10,22,12,46,7.30
2012,10,22,12,47,7.30
2012,10,22,12,48,7.30
2012,10,22,12,49,7.30
2012,10,22,12,50,7.30
2012,10,22,12,51,7.30
2012,10,22,12,52,7.30
2012,10,22,12,53,7.30
2012,10,22,12,54,7.30
2012,10,22,12,55,7.30
2012,10,22,12,56,7.30
2012,10,22,12,57,7.30
2012,10,22,12,58,7.30
2012,10,22,12,59,7.30
2012,10,22,13,00,7.30
2012,10,22,13,01,7.30
2012,10,22,13,02,7.30
2012,10,22,13,03,7.30
2012,10,22,13,04,7.30
2012,10,22,13,05,7.30
2012,10,22,13,06,7.30
2012,10,22,13,07,7.30
2012,10,22,13,08,7.30
2012,10,22,13,09,7.30
2012,10,22,13,10,7.40
2012,10,22,13,11,7.40
2012,10,22,13,12,7.40
2012,10,22,13,13,7.40
2012,10,22,13,14,7.40
2012,10,22,13,15,7.40
2012,10,22,13,16,7.40
2012,10,22,13,17,7.50
2012,10,22,13,18,7.50
2012,10,22,13,19,7.50
2012,10,22,13,20,7.60
2012,10,22,13,21,7.60
2012,10,22,13,22,7.60
2012,10,22,13,23,7.70
2012,10,22,13,24,7.70
2012,10,22,13,25,7.70
2012,10,22,13,26,7.70
2012,10,22,13,27,7.80
2012,10,22,13,28,7.80
2012,10,22,13,29,7.80
2012,10,22,13,30,7.80
2012,10,22,13,31,7.80
2012,10,22,13,32,7.80
2012,10,22,13,33,7.80
2012,10,22,13,34,7.80
2012,10,22,13,35,7.80
2012,10,22,13,36,7.80
2012,10,22,13,37,7.80
2012,10,22,13,38,7.90
2012,10,22,13,39,7.90
2012,10,22,13,40,7.90
2012,10,22,13,41,7.90
2012,10,22,13,42,7.90
2012,10,22,13,43,7.90
2012,10,22,13,44,7.90
2012,10,22,13,45,7.90
2012,10,22,13,46,7.90
2012,10,22,13,47,7.90
2012,10,22,13,48,8.00
2012,10,22,13,49,8.00
2012,10,22,13,50,8.10
2012,10,22,13,51,8.10
2012,10,22,13,52,8.10
2012,10,22,13,53,8.10
2012,10,22,13,54,8.10
2012,10,22,13,55,8.20
2012,10,22,13,56,8.20
2012,10,22,13,57,8.30
2012,10,22,13,58,8.30
2012,10,22,13,59,8.30
2012,10,22,14,00,8.30
2012,10,22,14,01,8.40
2012,10,22,14,02,8.40
2012,10,22,14,03,8.40
2012,10,22,14,04,8.40
2012,10,22,14,05,8.40
2012,10,22,14,06,8.50
2012,10,22,14,07,8.50
2012,10,22,14,08,8.60
2012,10,22,14,09,8.60
2012,10,22,14,10,8.60
2012,10,22,14,11,8.60
2012,10,22,14,12,8.60
2012,10,22,14,13,8.60
2012,10,22,14,14,8.60
2012,10,22,14,15,8.60
2012,10,22,14,16,8.70
2012,10,22,14,17,8.70
2012,10,22,14,18,8.70
2012,10,22,14,19,8.80
2012,10,22,14,20,8.80
2012,10,22,14,21,8.80
2012,10,22,14,22,8.80
2012,10,22,14,23,8.80
2012,10,22,14,24,8.80
2012,10,22,14,25,8.80
2012,10,22,14,26,8.80
2012,10,22,14,27,8.80
2012,10,22,14,28,8.80
2012,10,22,14,29,8.80
2012,10,22,14,30,8.80
2012,10,22,14,31,8.80
2012,10,22,14,32,8.80
2012,10,22,14,33,8.90
2012,10,22,14,34,8.90
2012,10,22,14,35,9.00
2012,10,22,14,36,9.00
2012,10,22,14,37,9.10
2012,10,22,14,38,9.10
2012,10,22,14,39,9.10
2012,10,22,14,40,9.10
2012,10,22,14,41,9.10
2012,10,22,14,42,9.10
2012,10,22,14,43,9.20
2012,10,22,14,44,9.20
2012,10,22,14,45,9.20
2012,10,22,14,46,9.20
2012,10,22,14,47,9.20
2012,10,22,14,48,9.20
2012,10,22,14,49,9.20
2012,10,22,14,50,9.20
2012,10,22,14,51,9.20
2012,10,22,14,52,9.20
2012,10,22,14,53,9.20
2012,10,22,14,54,9.20
2012,10,22,14,55,9.10
2012,10,22,14,56,9.10
2012,10,22,14,57,9.10
2012,10,22,14,58,9.10
2012,10,22,14,59,9.10
2012,10,22,15,00,9.10
2012,10,22,15,01,9.10
2012,10,22,15,02,9.10
2012,10,22,15,03,9.10
2012,10,22,15,04,9.10
2012,10,22,15,05,9.10
2012,10,22,15,06,9.00
2012,10,22,15,07,9.00
2012,10,22,15,08,9.00
2012,10,22,15,09,8.90
2012,10,22,15,10,8.90
2012,10,22,15,11,8.90
2012,10,22,15,12,8.90
2012,10,22,15,13,8.90
2012,10,22,15,14,8.90
2012,10,22,15,15,8.90
2012,10,22,15,16,8.90
2012,10,22,15,17,8.90
2012,10,22,15,18,8.80
2012,10,22,15,19,8.80
2012,10,22,15,20,8.80
2012,10,22,15,21,8.80
2012,10,22,15,22,8.80
2012,10,22,15,23,8.70
2012,10,22,15,24,8.80
2012,10,22,15,25,8.70
2012,10,22,15,26,8.70
2012,10,22,15,27,8.80
2012,10,22,15,28,8.80
2012,10,22,15,29,8.80
2012,10,22,15,30,8.80
2012,10,22,15,31,8.80
2012,10,22,15,32,8.80
2012,10,22,15,33,8.80
2012,10,22,15,34,8.80
2012,10,22,15,35,8.80
2012,10,22,15,36,8.80
2012,10,22,15,37,8.80
2012,10,22,15,38,8.80
2012,10,22,15,39,8.80
2012,10,22,15,40,8.80
2012,10,22,15,41,8.80
2012,10,22,15,42,8.80
2012,10,22,15,43,8.80
2012,10,22,15,44,8.80
2012,10,22,15,45,8.80
2012,10,22,15,46,8.80
2012,10,22,15,47,8.80
2012,10,22,15,48,8.70
2012,10,22,15,49,8.70
2012,10,22,15,50,8.80
2012,10,22,15,51,8.80
2012,10,22,15,52,8.80
2012,10,22,15,53,8.80
2012,10,22,15,54,8.80
2012,10,22,15,55,8.80
2012,10,22,15,56,8.80
2012,10,22,15,57,8.80
2012,10,22,15,58,8.80
2012,10,22,15,59,8.80
2012,10,22,16,00,8.80
2012,10,22,16,01,8.80
2012,10,22,16,02,8.80
2012,10,22,16,03,8.80
2012,10,22,16,04,8.70
2012,10,22,16,05,8.70
2012,10,22,16,06,8.70
2012,10,22,16,07,8.70
2012,10,22,16,08,8.70
2012,10,22,16,09,8.70
2012,10,22,16,10,8.70
2012,10,22,16,11,8.70
2012,10,22,16,12,8.70
2012,10,22,16,13,8.80
2012,10,22,16,14,8.80
2012,10,22,16,15,8.70
2012,10,22,16,16,8.80
2012,10,22,16,17,8.80
2012,10,22,16,18,8.70
2012,10,22,16,19,8.70
2012,10,22,16,20,8.70
2012,10,22,16,21,8.70
2012,10,22,16,22,8.70
2012,10,22,16,23,8.70
2012,10,22,16,24,8.70
2012,10,22,16,25,8.70
2012,10,22,16,26,8.70
2012,10,22,16,27,8.70
2012,10,22,16,28,8.70
2012,10,22,16,29,8.70
2012,10,22,16,30,8.70
2012,10,22,16,31,8.70
2012,10,22,16,32,8.70
2012,10,22,16,33,8.70
2012,10,22,16,34,8.70
2012,10,22,16,35,8.70
2012,10,22,16,36,8.70
2012,10,22,16,37,8.70
2012,10,22,16,38,8.70
2012,10,22,16,39,8.70
2012,10,22,16,40,8.70
2012,10,22,16,41,8.70
2012,10,22,16,42,8.70
2012,10,22,16,43,8.70
2012,10,22,16,44,8.70
2012,10,22,16,45,8.70
2012,10,22,16,46,8.70
2012,10,22,16,47,8.70
2012,10,22,16,48,8.70
2012,10,22,16,49,8.70
2012,10,22,16,50,8.70
2012,10,22,16,51,8.70
2012,10,22,16,52,8.70
2012,10,22,16,53,8.70
2012,10,22,16,54,8.70
2012,10,22,16,55,8.70
2012,10,22,16,56,8.70
2012,10,22,16,57,8.70
2012,10,22,16,58,8.70
2012,10,22,16,59,8.70
2012,10,22,17,00,8.60
2012,10,22,17,01,8.60
2012,10,22,17,02,8.60
2012,10,22,17,03,8.60
2012,10,22,17,04,8.60
2012,10,22,17,05,8.60
2012,10,22,17,06,8.60
2012,10,22,17,07,8.60
2012,10,22,17,08,8.50
2012,10,22,17,09,8.50
2012,10,22,17,10,8.40
2012,10,22,17,11,8.40
2012,10,22,17,12,8.40
2012,10,22,17,13,8.40
2012,10,22,17,14,8.30
2012,10,22,17,15,8.30
2012,10,22,17,16,8.20
2012,10,22,17,17,8.20
2012,10,22,17,18,8.20
2012,10,22,17,19,8.20
2012,10,22,17,20,8.10
2012,10,22,17,21,8.10
2012,10,22,17,22,8.00
2012,10,22,17,23,8.00
2012,10,22,17,24,7.90
2012,10,22,17,25,7.90
2012,10,22,17,26,7.80
2012,10,22,17,27,7.80
2012,10,22,17,28,7.80
2012,10,22,17,29,7.80
2012,10,22,17,30,7.70
2012,10,22,17,31,7.70
2012,10,22,17,32,7.70
2012,10,22,17,33,7.70
2012,10,22,17,34,7.70
2012,10,22,17,35,7.60
2012,10,22,17,36,7.60
2012,10,22,17,37,7.60
2012,10,22,17,38,7.50
2012,10,22,17,39,7.50
2012,10,22,17,40,7.40
2012,10,22,17,41,7.40
2012,10,22,17,42,7.40
2012,10,22,17,43,7.40
2012,10,22,17,44,7.40
2012,10,22,17,45,7.40
2012,10,22,17,46,7.30
2012,10,22,17,47,7.30
2012,10,22,17,48,7.30
2012,10,22,17,49,7.30
2012,10,22,17,50,7.30
2012,10,22,17,51,7.20
2012,10,22,17,52,7.20
2012,10,22,17,53,7.20
2012,10,22,17,54,7.20
2012,10,22,17,55,7.20
2012,10,22,17,56,7.20
2012,10,22,17,57,7.20
2012,10,22,17,58,7.20
2012,10,22,17,59,7.20
2012,10,22,18,00,7.10
2012,10,22,18,01,7.10
2012,10,22,18,02,7.10
2012,10,22,18,03,7.10
2012,10,22,18,04,7.00
2012,10,22,18,05,7.00
2012,10,22,18,06,7.00